| time (UTC) | temp C | wind direction | speed KPH | gust KPH | rain 1hr cm | rain 24hr cm | rain mn cm | humidity % | barometer mb |
| 20260902100122 | 8 | 21 | 0.0 | 0.0 | 0.00 | 0.00 | 0.00 | 99 | 1023.4 |
| 20260902095621 | 9 | 26 | 0.0 | 0.0 | 0.00 | 0.00 | 0.00 | 99 | 1023.4 |
| 20260902095120 | 9 | 10 | 0.0 | 0.0 | 0.00 | 0.00 | 0.00 | 99 | 1023.3 |
| 20260902094616 | 9 | 1 | 0.0 | 0.0 | 0.00 | 0.00 | 0.00 | 99 | 1023.2 |
| 20260902094112 | 8 | 20 | 0.0 | 0.0 | 0.00 | 0.00 | 0.00 | 99 | 1023.1 |
| 20260902093612 | 8 | 20 | 0.0 | 0.0 | 0.00 | 0.00 | 0.00 | 99 | 1023.2 |
| 20260902093107 | 8 | 25 | 0.0 | 0.0 | 0.00 | 0.00 | 0.00 | 99 | 1023.4 |
| 20260902092607 | 10 | 21 | 0.0 | 0.0 | 0.00 | 0.00 | 0.00 | 99 | 1023.1 |
| 20260902092102 | 10 | 358 | 0.0 | 0.0 | 0.00 | 0.00 | 0.00 | 99 | 1023.2 |
| 20260902091557 | 9 | 23 | 0.0 | 0.0 | 0.00 | 0.00 | 0.00 | 99 | 1023.0 |
| 20260902091053 | 8 | 24 | 0.0 | 0.0 | 0.00 | 0.00 | 0.00 | 99 | 1023.2 |
| 20260902090549 | 8 | 27 | 0.0 | 0.0 | 0.00 | 0.00 | 0.00 | 99 | 1023.2 |
| 20260902090048 | 8 | 26 | 0.0 | 0.0 | 0.00 | 0.00 | 0.00 | 99 | 1023.0 |
| 20260902085542 | 9 | 64 | 0.0 | 0.0 | 0.00 | 0.00 | 0.00 | 99 | 1023.0 |
| 20260902085037 | 10 | 6 | 0.0 | 0.0 | 0.00 | 0.00 | 0.00 | 99 | 1023.2 |
| 20260902084533 | 10 | 0 | 0.0 | 0.0 | 0.00 | 0.00 | 0.00 | 99 | 1022.8 |
| 20260902084029 | 10 | 356 | 0.0 | 0.0 | 0.00 | 0.00 | 0.00 | 99 | 1023.0 |
| 20260902083519 | 10 | 4 | 0.0 | 0.0 | 0.00 | 0.00 | 0.00 | 99 | 1022.8 |
| 20260902083013 | 9 | 15 | 0.0 | 0.0 | 0.00 | 0.00 | 0.00 | 99 | 1022.9 |
| 20260902082509 | 9 | 7 | 0.0 | 0.0 | 0.00 | 0.00 | 0.00 | 99 | 1022.9 |
| 20260902082005 | 9 | 2 | 0.0 | 0.0 | 0.00 | 0.00 | 0.00 | 99 | 1023.1 |
| 20260902081501 | 9 | 348 | 0.0 | 0.0 | 0.00 | 0.00 | 0.00 | 99 | 1023.1 |
| 20260902080955 | 9 | 9 | 0.0 | 0.0 | 0.00 | 0.00 | 0.00 | 99 | 1023.1 |
| 20260902080451 | 8 | 8 | 0.0 | 0.0 | 0.00 | 0.00 | 0.00 | 99 | 1022.8 |
| 20260902075951 | 8 | 21 | 0.0 | 0.0 | 0.00 | 0.00 | 0.00 | 99 | 1022.9 |
| 20260902075447 | 8 | 22 | 0.0 | 0.0 | 0.00 | 0.00 | 0.00 | 99 | 1022.8 |
| 20260902074942 | 8 | 26 | 0.0 | 0.0 | 0.00 | 0.00 | 0.00 | 99 | 1022.9 |
| 20260902074438 | 8 | 23 | 0.0 | 0.0 | 0.00 | 0.00 | 0.00 | 99 | 1022.8 |
| 20260902073932 | 9 | 22 | 0.0 | 0.0 | 0.00 | 0.00 | 0.00 | 99 | 1022.8 |
| 20260902073429 | 10 | 24 | 0.0 | 1.6 | 0.00 | 0.00 | 0.00 | 99 | 1022.5 |
| 20260902072925 | 10 | 15 | 0.0 | 0.0 | 0.00 | 0.00 | 0.00 | 99 | 1022.6 |
| 20260902072420 | 10 | 15 | 0.0 | 0.0 | 0.00 | 0.00 | 0.00 | 99 | 1022.7 |
| 20260902071917 | 10 | 12 | 0.0 | 0.0 | 0.00 | 0.00 | 0.00 | 99 | 1022.6 |
| 20260902071416 | 10 | 7 | 0.0 | 0.0 | 0.00 | 0.00 | 0.00 | 99 | 1022.6 |
| 20260902070913 | 10 | 24 | 0.0 | 0.0 | 0.00 | 0.00 | 0.00 | 99 | 1022.7 |
| 20260902070408 | 10 | 22 | 0.0 | 0.0 | 0.00 | 0.00 | 0.00 | 99 | 1022.6 |
| 20260902065907 | 12 | 23 | 0.0 | 0.0 | 0.00 | 0.00 | 0.00 | 99 | 1022.5 |
| 20260902065402 | 12 | 2 | 0.0 | 0.0 | 0.00 | 0.00 | 0.00 | 99 | 1022.7 |
| 20260902064857 | 11 | 6 | 0.0 | 0.0 | 0.00 | 0.00 | 0.00 | 99 | 1022.6 |
| 20260902064353 | 11 | 10 | 0.0 | 0.0 | 0.00 | 0.00 | 0.00 | 99 | 1022.5 |
| 20260902063848 | 11 | 15 | 0.0 | 0.0 | 0.00 | 0.00 | 0.00 | 99 | 1022.6 |
| 20260902063348 | 11 | 22 | 0.0 | 0.0 | 0.00 | 0.00 | 0.00 | 99 | 1022.6 |
| 20260902062843 | 11 | 359 | 0.0 | 0.0 | 0.00 | 0.00 | 0.00 | 99 | 1022.4 |
| 20260902062343 | 11 | 10 | 0.0 | 0.0 | 0.00 | 0.00 | 0.00 | 99 | 1022.4 |
| 20260902061842 | 11 | 19 | 0.0 | 0.0 | 0.00 | 0.00 | 0.00 | 99 | 1022.4 |
| 20260902061338 | 11 | 9 | 0.0 | 0.0 | 0.00 | 0.00 | 0.00 | 99 | 1022.2 |
| 20260902060833 | 10 | 10 | 0.0 | 0.0 | 0.00 | 0.00 | 0.00 | 99 | 1022.1 |
| 20260902060329 | 10 | 22 | 0.0 | 0.0 | 0.00 | 0.00 | 0.00 | 99 | 1022.1 |
| 20260902055825 | 10 | 23 | 0.0 | 0.0 | 0.00 | 0.00 | 0.00 | 99 | 1022.0 |
| 20260902055321 | 10 | 24 | 0.0 | 0.0 | 0.00 | 0.00 | 0.00 | 99 | 1021.9 |
| 20260902054816 | 10 | 21 | 0.0 | 0.0 | 0.00 | 0.00 | 0.00 | 99 | 1021.8 |
| 20260902054311 | 10 | 29 | 1.6 | 1.6 | 0.00 | 0.00 | 0.00 | 99 | 1021.8 |
| 20260902053806 | 10 | 23 | 0.0 | 0.0 | 0.00 | 0.00 | 0.00 | 99 | 1022.0 |
| 20260902053301 | 10 | 20 | 0.0 | 0.0 | 0.00 | 0.00 | 0.00 | 99 | 1021.8 |
| 20260902052800 | 10 | 20 | 0.0 | 0.0 | 0.00 | 0.00 | 0.00 | 99 | 1021.6 |
| 20260902052255 | 11 | 20 | 0.0 | 0.0 | 0.00 | 0.00 | 0.00 | 99 | 1021.6 |
| 20260902051750 | 11 | 19 | 0.0 | 0.0 | 0.00 | 0.00 | 0.00 | 99 | 1021.6 |
| 20260902051249 | 11 | 353 | 0.0 | 0.0 | 0.00 | 0.00 | 0.00 | 99 | 1021.8 |
| 20260902050745 | 11 | 2 | 1.6 | 1.6 | 0.00 | 0.00 | 0.00 | 99 | 1021.6 |
| 20260902050240 | 11 | 25 | 1.6 | 1.6 | 0.00 | 0.00 | 0.00 | 99 | 1021.7 |
| 20260902045739 | 11 | 42 | 0.0 | 0.0 | 0.00 | 0.00 | 0.00 | 99 | 1021.7 |
| 20260902045235 | 11 | 17 | 0.0 | 0.0 | 0.00 | 0.00 | 0.00 | 99 | 1021.8 |
| 20260902044731 | 11 | 21 | 0.0 | 0.0 | 0.00 | 0.00 | 0.00 | 99 | 1021.4 |
| 20260902044226 | 11 | 14 | 0.0 | 0.0 | 0.00 | 0.00 | 0.00 | 99 | 1021.3 |
| 20260902043721 | 10 | 22 | 0.0 | 0.0 | 0.00 | 0.00 | 0.00 | 99 | 1021.3 |
| 20260902043217 | 11 | 22 | 0.0 | 0.0 | 0.00 | 0.00 | 0.00 | 99 | 1021.2 |
| 20260902042716 | 11 | 22 | 0.0 | 0.0 | 0.00 | 0.00 | 0.00 | 99 | 1021.2 |
| 20260902042211 | 11 | 22 | 0.0 | 0.0 | 0.00 | 0.00 | 0.00 | 99 | 1021.2 |
| 20260902041707 | 11 | 22 | 0.0 | 0.0 | 0.00 | 0.00 | 0.00 | 99 | 1021.1 |
| 20260902041201 | 11 | 22 | 0.0 | 0.0 | 0.00 | 0.00 | 0.00 | 99 | 1021.0 |
| 20260902040700 | 12 | 22 | 0.0 | 0.0 | 0.00 | 0.00 | 0.00 | 99 | 1020.9 |
| 20260902040156 | 12 | 15 | 0.0 | 0.0 | 0.00 | 0.00 | 0.00 | 99 | 1021.0 |
| 20260902035654 | 12 | 24 | 0.0 | 0.0 | 0.00 | 0.00 | 0.00 | 99 | 1021.2 |
| 20260902035149 | 11 | 20 | 0.0 | 0.0 | 0.00 | 0.00 | 0.00 | 99 | 1020.9 |
| 20260902034648 | 12 | 29 | 0.0 | 0.0 | 0.00 | 0.00 | 0.00 | 99 | 1021.2 |
| 20260902034148 | 13 | 21 | 0.0 | 0.0 | 0.00 | 0.00 | 0.00 | 99 | 1020.8 |
| 20260902033647 | 13 | 11 | 0.0 | 0.0 | 0.00 | 0.00 | 0.00 | 99 | 1021.0 |
| 20260902033142 | 13 | 10 | 0.0 | 0.0 | 0.00 | 0.00 | 0.00 | 99 | 1021.0 |
| 20260902032641 | 13 | 8 | 0.0 | 0.0 | 0.00 | 0.00 | 0.00 | 99 | 1021.0 |
| 20260902032136 | 13 | 22 | 0.0 | 0.0 | 0.00 | 0.00 | 0.00 | 99 | 1020.9 |
| 20260902031630 | 13 | 21 | 0.0 | 0.0 | 0.00 | 0.00 | 0.00 | 99 | 1020.9 |
| 20260902031126 | 13 | 22 | 0.0 | 0.0 | 0.00 | 0.00 | 0.00 | 99 | 1020.8 |
| 20260902030621 | 13 | 17 | 0.0 | 0.0 | 0.00 | 0.00 | 0.00 | 99 | 1020.7 |
| 20260902030121 | 13 | 16 | 0.0 | 0.0 | 0.00 | 0.00 | 0.00 | 99 | 1020.8 |
| 20260902025621 | 13 | 14 | 0.0 | 0.0 | 0.00 | 0.00 | 0.00 | 99 | 1020.5 |
| 20260902025116 | 13 | 17 | 0.0 | 0.0 | 0.00 | 0.00 | 0.00 | 99 | 1020.5 |
| 20260902024612 | 13 | 20 | 0.0 | 0.0 | 0.00 | 0.00 | 0.00 | 99 | 1020.7 |
| 20260902024106 | 13 | 19 | 0.0 | 0.0 | 0.00 | 0.00 | 0.00 | 99 | 1020.7 |
| 20260902023602 | 13 | 19 | 0.0 | 0.0 | 0.00 | 0.00 | 0.00 | 99 | 1020.8 |
| 20260902023056 | 12 | 19 | 0.0 | 0.0 | 0.00 | 0.00 | 0.00 | 99 | 1020.7 |
| 20260902022556 | 12 | 18 | 0.0 | 0.0 | 0.00 | 0.00 | 0.00 | 99 | 1020.5 |
| 20260902022052 | 13 | 18 | 0.0 | 0.0 | 0.00 | 0.00 | 0.00 | 99 | 1020.8 |
| 20260902021547 | 13 | 18 | 0.0 | 0.0 | 0.00 | 0.00 | 0.00 | 99 | 1020.5 |
| 20260902021042 | 13 | 18 | 0.0 | 0.0 | 0.00 | 0.00 | 0.00 | 99 | 1020.7 |
| 20260902020538 | 13 | 17 | 0.0 | 0.0 | 0.00 | 0.00 | 0.00 | 99 | 1020.5 |
| 20260902020034 | 13 | 25 | 0.0 | 0.0 | 0.00 | 0.00 | 0.00 | 99 | 1020.9 |
| 20260902015529 | 13 | 26 | 0.0 | 0.0 | 0.00 | 0.00 | 0.00 | 99 | 1020.8 |
| 20260902015025 | 14 | 12 | 0.0 | 0.0 | 0.00 | 0.00 | 0.00 | 99 | 1020.6 |
| 20260902014521 | 14 | 12 | 0.0 | 0.0 | 0.00 | 0.00 | 0.00 | 99 | 1020.7 |
| 20260902014016 | 15 | 9 | 0.0 | 0.0 | 0.00 | 0.00 | 0.00 | 99 | 1020.7 |
| 20260902013511 | 14 | 22 | 0.0 | 0.0 | 0.00 | 0.00 | 0.00 | 99 | 1020.5 |
| 20260902013006 | 14 | 22 | 0.0 | 0.0 | 0.00 | 0.00 | 0.00 | 99 | 1020.5 |
| 20260902012501 | 14 | 22 | 0.0 | 0.0 | 0.00 | 0.00 | 0.00 | 99 | 1020.3 |
| 20260902011957 | 14 | 22 | 0.0 | 0.0 | 0.00 | 0.00 | 0.00 | 99 | 1020.5 |
| 20260902011452 | 14 | 23 | 0.0 | 0.0 | 0.00 | 0.00 | 0.00 | 99 | 1020.7 |
| 20260902010951 | 14 | 23 | 0.0 | 0.0 | 0.00 | 0.00 | 0.00 | 99 | 1020.4 |
| 20260902010447 | 15 | 20 | 0.0 | 0.0 | 0.00 | 0.00 | 0.00 | 99 | 1020.3 |
| 20260902005946 | 15 | 17 | 0.0 | 0.0 | 0.00 | 0.00 | 0.00 | 99 | 1020.5 |
| 20260902005445 | 15 | 22 | 0.0 | 0.0 | 0.00 | 0.00 | 0.00 | 99 | 1020.4 |
| 20260902004942 | 15 | 23 | 0.0 | 0.0 | 0.00 | 0.00 | 0.00 | 99 | 1020.4 |
| 20260902004441 | 15 | 22 | 0.0 | 0.0 | 0.00 | 0.00 | 0.00 | 99 | 1020.3 |
| 20260902003936 | 15 | 22 | 0.0 | 0.0 | 0.00 | 0.00 | 0.00 | 99 | 1020.2 |
| 20260902003436 | 15 | 25 | 0.0 | 0.0 | 0.00 | 0.00 | 0.00 | 99 | 1020.0 |
| 20260902002932 | 15 | 25 | 0.0 | 0.0 | 0.00 | 0.00 | 0.00 | 99 | 1020.0 |
| 20260902002427 | 15 | 25 | 0.0 | 0.0 | 0.00 | 0.00 | 0.00 | 99 | 1020.0 |
| 20260902001926 | 16 | 25 | 0.0 | 0.0 | 0.00 | 0.00 | 0.00 | 99 | 1020.0 |
| 20260902001421 | 16 | 24 | 0.0 | 0.0 | 0.00 | 0.00 | 0.00 | 99 | 1020.1 |
| 20260902000917 | 16 | 21 | 0.0 | 0.0 | 0.00 | 0.00 | 0.00 | 98 | 1020.0 |
| 20260902000414 | 16 | 19 | 0.0 | 0.0 | 0.00 | 0.00 | 0.00 | 98 | 1020.2 |
| 20260901235906 | 16 | 13 | 0.0 | 0.0 | 0.00 | 0.00 | 0.00 | 96 | 1019.9 |
| 20260901235401 | 16 | 13 | 0.0 | 0.0 | 0.00 | 0.00 | 0.00 | 96 | 1020.0 |
| 20260901234856 | 16 | 12 | 0.0 | 0.0 | 0.00 | 0.00 | 0.00 | 95 | 1019.9 |
| 20260901234350 | 16 | 11 | 0.0 | 0.0 | 0.00 | 0.00 | 0.00 | 94 | 1020.0 |
| 20260901233845 | 16 | 9 | 0.0 | 0.0 | 0.00 | 0.00 | 0.00 | 93 | 1019.9 |
| 20260901233341 | 17 | 10 | 0.0 | 0.0 | 0.00 | 0.00 | 0.00 | 93 | 1019.9 |
| 20260901232836 | 17 | 23 | 0.0 | 0.0 | 0.00 | 0.00 | 0.00 | 92 | 1019.8 |
| 20260901232331 | 17 | 23 | 0.0 | 0.0 | 0.00 | 0.00 | 0.00 | 91 | 1019.8 |
| 20260901231827 | 17 | 19 | 0.0 | 0.0 | 0.00 | 0.00 | 0.00 | 89 | 1019.8 |
| 20260901231323 | 18 | 18 | 0.0 | 0.0 | 0.00 | 0.00 | 0.00 | 88 | 1019.8 |
| 20260901230819 | 18 | 37 | 0.0 | 1.6 | 0.00 | 0.00 | 0.00 | 87 | 1019.8 |
| 20260901230319 | 18 | 187 | 3.2 | 3.2 | 0.00 | 0.00 | 0.00 | 86 | 1019.8 |
| 20260901225815 | 18 | 181 | 4.8 | 4.8 | 0.00 | 0.00 | 0.00 | 86 | 1019.6 |
| 20260901225314 | 18 | 194 | 4.8 | 8.0 | 0.00 | 0.00 | 0.00 | 84 | 1019.6 |
| 20260901224809 | 19 | 199 | 4.8 | 4.8 | 0.00 | 0.00 | 0.00 | 83 | 1019.6 |
| 20260901224306 | 20 | 210 | 4.8 | 4.8 | 0.00 | 0.00 | 0.00 | 81 | 1019.3 |
| 20260901223801 | 20 | 206 | 4.8 | 4.8 | 0.00 | 0.00 | 0.00 | 80 | 1019.5 |
| 20260901223256 | 20 | 79 | 1.6 | 3.2 | 0.00 | 0.00 | 0.00 | 78 | 1019.4 |
| 20260901222752 | 20 | 74 | 1.6 | 1.6 | 0.00 | 0.00 | 0.00 | 77 | 1019.4 |
| 20260901222248 | 20 | 203 | 3.2 | 3.2 | 0.00 | 0.00 | 0.00 | 77 | 1019.0 |
| 20260901221744 | 20 | 224 | 6.4 | 8.0 | 0.00 | 0.00 | 0.00 | 76 | 1019.0 |
| 20260901221239 | 21 | 191 | 6.4 | 8.0 | 0.00 | 0.00 | 0.00 | 74 | 1019.4 |
| 20260901220739 | 21 | 206 | 4.8 | 8.0 | 0.00 | 0.00 | 0.00 | 73 | 1019.1 |
| 20260901220233 | 21 | 190 | 4.8 | 4.8 | 0.00 | 0.00 | 0.00 | 72 | 1019.2 |
| 20260901215731 | 21 | 204 | 8.0 | 9.7 | 0.00 | 0.00 | 0.00 | 71 | 1019.1 |
| 20260901215232 | 21 | 219 | 4.8 | 8.0 | 0.00 | 0.00 | 0.00 | 70 | 1019.3 |
| 20260901214730 | 21 | 206 | 3.2 | 4.8 | 0.00 | 0.00 | 0.00 | 70 | 1019.2 |
| 20260901214229 | 21 | 198 | 6.4 | 8.0 | 0.00 | 0.00 | 0.00 | 69 | 1019.3 |
| 20260901213729 | 21 | 220 | 4.8 | 4.8 | 0.00 | 0.00 | 0.00 | 69 | 1018.9 |
| 20260901213224 | 21 | 194 | 4.8 | 4.8 | 0.00 | 0.00 | 0.00 | 69 | 1019.1 |
| 20260901212724 | 21 | 215 | 4.8 | 4.8 | 0.00 | 0.00 | 0.00 | 70 | 1019.1 |
| 20260901212220 | 22 | 218 | 3.2 | 4.8 | 0.00 | 0.00 | 0.00 | 66 | 1018.8 |
| 20260901211720 | 22 | 164 | 11.3 | 12.9 | 0.00 | 0.00 | 0.00 | 67 | 1019.0 |
| 20260901211216 | 22 | 199 | 8.0 | 9.7 | 0.00 | 0.00 | 0.00 | 66 | 1019.1 |
| 20260901210712 | 22 | 184 | 6.4 | 9.7 | 0.00 | 0.00 | 0.00 | 65 | 1018.9 |
| 20260901210207 | 22 | 209 | 9.7 | 11.3 | 0.00 | 0.00 | 0.00 | 61 | 1018.9 |
| 20260901205703 | 22 | 210 | 6.4 | 9.7 | 0.00 | 0.00 | 0.00 | 62 | 1018.5 |
| 20260901205157 | 23 | 211 | 11.3 | 11.3 | 0.00 | 0.00 | 0.00 | 59 | 1018.8 |
| 20260901204653 | 22 | 158 | 6.4 | 9.7 | 0.00 | 0.00 | 0.00 | 61 | 1018.6 |
| 20260901204149 | 22 | 219 | 4.8 | 8.0 | 0.00 | 0.00 | 0.00 | 60 | 1018.6 |
| 20260901203649 | 23 | 145 | 11.3 | 14.5 | 0.00 | 0.00 | 0.00 | 59 | 1018.4 |
| 20260901203144 | 22 | 187 | 9.7 | 11.3 | 0.00 | 0.00 | 0.00 | 61 | 1018.4 |
| 20260901202643 | 22 | 199 | 11.3 | 16.1 | 0.00 | 0.00 | 0.00 | 61 | 1018.6 |
| 20260901202139 | 23 | 183 | 6.4 | 12.9 | 0.00 | 0.00 | 0.00 | 59 | 1018.7 |
| 20260901201635 | 22 | 231 | 4.8 | 4.8 | 0.00 | 0.00 | 0.00 | 63 | 1018.4 |
| 20260901201134 | 23 | 210 | 4.8 | 8.0 | 0.00 | 0.00 | 0.00 | 61 | 1018.6 |
| 20260901200634 | 23 | 223 | 11.3 | 14.5 | 0.00 | 0.00 | 0.00 | 61 | 1018.6 |
| 20260901200129 | 23 | 226 | 11.3 | 14.5 | 0.00 | 0.00 | 0.00 | 63 | 1018.5 |
| 20260901195627 | 23 | 208 | 12.9 | 14.5 | 0.00 | 0.00 | 0.00 | 62 | 1018.6 |
| 20260901195127 | 23 | 149 | 11.3 | 14.5 | 0.00 | 0.00 | 0.00 | 61 | 1018.7 |
| 20260901194622 | 23 | 222 | 8.0 | 11.3 | 0.00 | 0.00 | 0.00 | 60 | 1018.6 |
| 20260901194117 | 23 | 199 | 16.1 | 20.9 | 0.00 | 0.00 | 0.00 | 60 | 1018.7 |
| 20260901193613 | 24 | 160 | 8.0 | 11.3 | 0.00 | 0.00 | 0.00 | 60 | 1018.3 |
| 20260901193107 | 23 | 206 | 8.0 | 12.9 | 0.00 | 0.00 | 0.00 | 59 | 1018.7 |
| 20260901192602 | 23 | 213 | 9.7 | 11.3 | 0.00 | 0.00 | 0.00 | 59 | 1018.6 |
| 20260901192057 | 23 | 218 | 9.7 | 11.3 | 0.00 | 0.00 | 0.00 | 59 | 1018.8 |
| 20260901191553 | 23 | 155 | 6.4 | 9.7 | 0.00 | 0.00 | 0.00 | 59 | 1018.6 |
| 20260901191049 | 23 | 237 | 4.8 | 4.8 | 0.00 | 0.00 | 0.00 | 58 | 1018.6 |
| 20260901190544 | 24 | 153 | 4.8 | 8.0 | 0.00 | 0.00 | 0.00 | 57 | 1018.6 |
| 20260901190043 | 23 | 224 | 6.4 | 9.7 | 0.00 | 0.00 | 0.00 | 60 | 1018.6 |
| 20260901185537 | 24 | 171 | 9.7 | 12.9 | 0.00 | 0.00 | 0.00 | 58 | 1018.6 |
| 20260901185036 | 23 | 258 | 3.2 | 3.2 | 0.00 | 0.00 | 0.00 | 59 | 1018.6 |
| 20260901184531 | 24 | 235 | 8.0 | 12.9 | 0.00 | 0.00 | 0.00 | 57 | 1018.5 |
| 20260901184026 | 23 | 210 | 9.7 | 11.3 | 0.00 | 0.00 | 0.00 | 61 | 1018.6 |
| 20260901183521 | 23 | 182 | 4.8 | 8.0 | 0.00 | 0.00 | 0.00 | 58 | 1018.6 |
| 20260901183016 | 24 | 226 | 8.0 | 9.7 | 0.00 | 0.00 | 0.00 | 58 | 1018.6 |
| 20260901182512 | 23 | 274 | 6.4 | 8.0 | 0.00 | 0.00 | 0.00 | 57 | 1018.6 |
| 20260901182007 | 24 | 214 | 3.2 | 8.0 | 0.00 | 0.00 | 0.00 | 58 | 1018.6 |
| 20260901181507 | 23 | 109 | 6.4 | 8.0 | 0.00 | 0.00 | 0.00 | 60 | 1018.5 |
| 20260901181006 | 24 | 213 | 11.3 | 12.9 | 0.00 | 0.00 | 0.00 | 58 | 1018.7 |
| 20260901180505 | 23 | 6 | 0.0 | 0.0 | 0.00 | 0.00 | 0.00 | 57 | 1018.6 |
| 20260901180004 | 24 | 249 | 4.8 | 4.8 | 0.00 | 0.00 | 0.00 | 55 | 1018.8 |
| 20260901175459 | 22 | 219 | 8.0 | 11.3 | 0.00 | 0.00 | 0.00 | 58 | 1018.6 |
| 20260901174953 | 23 | 198 | 8.0 | 12.9 | 0.00 | 0.00 | 0.00 | 55 | 1018.4 |
| 20260901174449 | 23 | 200 | 8.0 | 9.7 | 0.00 | 0.00 | 0.00 | 57 | 1018.5 |
| 20260901173945 | 23 | 221 | 14.5 | 17.7 | 0.00 | 0.00 | 0.00 | 58 | 1018.5 |
| 20260901173440 | 23 | 174 | 11.3 | 11.3 | 0.00 | 0.00 | 0.00 | 62 | 1018.5 |
| 20260901172936 | 23 | 221 | 8.0 | 9.7 | 0.00 | 0.00 | 0.00 | 63 | 1018.5 |
| 20260901172431 | 23 | 53 | 3.2 | 3.2 | 0.00 | 0.00 | 0.00 | 61 | 1018.6 |
| 20260901171929 | 23 | 208 | 8.0 | 11.3 | 0.00 | 0.00 | 0.00 | 61 | 1018.5 |
| 20260901171428 | 23 | 205 | 6.4 | 11.3 | 0.00 | 0.00 | 0.00 | 63 | 1018.8 |
| 20260901170926 | 22 | 183 | 8.0 | 9.7 | 0.00 | 0.00 | 0.00 | 66 | 1018.9 |
| 20260901170422 | 23 | 204 | 8.0 | 9.7 | 0.00 | 0.00 | 0.00 | 64 | 1018.8 |
| 20260901165915 | 23 | 218 | 8.0 | 11.3 | 0.00 | 0.00 | 0.00 | 64 | 1018.8 |
| 20260901165410 | 22 | 210 | 12.9 | 14.5 | 0.00 | 0.00 | 0.00 | 64 | 1018.8 |
| 20260901164907 | 23 | 192 | 8.0 | 9.7 | 0.00 | 0.00 | 0.00 | 62 | 1018.6 |
| 20260901164407 | 23 | 209 | 8.0 | 9.7 | 0.00 | 0.00 | 0.00 | 64 | 1018.9 |
| 20260901163901 | 22 | 71 | 3.2 | 4.8 | 0.00 | 0.00 | 0.00 | 64 | 1018.8 |
| 20260901163356 | 22 | 171 | 4.8 | 9.7 | 0.00 | 0.00 | 0.00 | 66 | 1018.6 |
| 20260901162851 | 22 | 230 | 6.4 | 8.0 | 0.00 | 0.00 | 0.00 | 66 | 1019.0 |
| 20260901162349 | 22 | 231 | 3.2 | 4.8 | 0.00 | 0.00 | 0.00 | 67 | 1018.9 |
| 20260901161844 | 22 | 19 | 4.8 | 4.8 | 0.00 | 0.00 | 0.00 | 67 | 1018.9 |
| 20260901161338 | 21 | 18 | 3.2 | 3.2 | 0.00 | 0.00 | 0.00 | 67 | 1018.9 |
| 20260901160833 | 22 | 189 | 9.7 | 11.3 | 0.00 | 0.00 | 0.00 | 67 | 1019.1 |
| 20260901160330 | 22 | 49 | 6.4 | 8.0 | 0.00 | 0.00 | 0.00 | 66 | 1019.0 |
| 20260901155829 | 22 | 181 | 6.4 | 9.7 | 0.00 | 0.00 | 0.00 | 62 | 1018.9 |
| 20260901155324 | 22 | 192 | 11.3 | 12.9 | 0.00 | 0.00 | 0.00 | 64 | 1018.8 |
| 20260901154821 | 22 | 221 | 9.7 | 11.3 | 0.00 | 0.00 | 0.00 | 65 | 1019.0 |
| 20260901154319 | 23 | 221 | 12.9 | 20.9 | 0.00 | 0.00 | 0.00 | 63 | 1019.0 |
| 20260901153814 | 23 | 209 | 8.0 | 9.7 | 0.00 | 0.00 | 0.00 | 65 | 1019.2 |
| 20260901153314 | 22 | 17 | 4.8 | 9.7 | 0.00 | 0.00 | 0.00 | 64 | 1019.2 |
| 20260901152813 | 22 | 50 | 3.2 | 4.8 | 0.00 | 0.00 | 0.00 | 64 | 1019.1 |
| 20260901152312 | 22 | 142 | 6.4 | 9.7 | 0.00 | 0.00 | 0.00 | 66 | 1019.3 |
| 20260901151808 | 22 | 56 | 1.6 | 1.6 | 0.00 | 0.00 | 0.00 | 68 | 1018.8 |
| 20260901151302 | 22 | 59 | 3.2 | 4.8 | 0.00 | 0.00 | 0.00 | 66 | 1019.0 |
| 20260901150802 | 21 | 39 | 1.6 | 1.6 | 0.00 | 0.00 | 0.00 | 67 | 1019.2 |
| 20260901150300 | 21 | 74 | 0.0 | 1.6 | 0.00 | 0.00 | 0.00 | 69 | 1019.0 |
| 20260901145757 | 21 | 134 | 1.6 | 3.2 | 0.00 | 0.00 | 0.00 | 68 | 1019.2 |
| 20260901145251 | 21 | 92 | 1.6 | 3.2 | 0.00 | 0.00 | 0.00 | 69 | 1019.3 |
| 20260901144747 | 21 | 135 | 1.6 | 1.6 | 0.00 | 0.00 | 0.00 | 66 | 1019.2 |
| 20260901144243 | 21 | 25 | 4.8 | 4.8 | 0.00 | 0.00 | 0.00 | 67 | 1019.1 |
| 20260901143738 | 22 | 65 | 1.6 | 1.6 | 0.00 | 0.00 | 0.00 | 67 | 1019.3 |
| 20260901143234 | 21 | 40 | 1.6 | 1.6 | 0.00 | 0.00 | 0.00 | 68 | 1019.5 |
| 20260901142730 | 21 | 100 | 3.2 | 3.2 | 0.00 | 0.00 | 0.00 | 69 | 1019.3 |
| 20260901142229 | 21 | 64 | 3.2 | 4.8 | 0.00 | 0.00 | 0.00 | 67 | 1019.3 |
| 20260901141725 | 20 | 74 | 0.0 | 0.0 | 0.00 | 0.00 | 0.00 | 71 | 1019.4 |
| 20260901141225 | 20 | 54 | 3.2 | 3.2 | 0.00 | 0.00 | 0.00 | 73 | 1019.4 |
| 20260901140724 | 20 | 44 | 1.6 | 1.6 | 0.00 | 0.00 | 0.00 | 73 | 1019.3 |
| 20260901140222 | 20 | 31 | 0.0 | 1.6 | 0.00 | 0.00 | 0.00 | 71 | 1019.4 |
| 20260901135717 | 20 | 45 | 1.6 | 1.6 | 0.00 | 0.00 | 0.00 | 73 | 1019.5 |
| 20260901135212 | 20 | 44 | 1.6 | 1.6 | 0.00 | 0.00 | 0.00 | 74 | 1019.6 |
| 20260901134708 | 19 | 34 | 1.6 | 1.6 | 0.00 | 0.00 | 0.00 | 74 | 1019.7 |
| 20260901134203 | 20 | 30 | 0.0 | 1.6 | 0.00 | 0.00 | 0.00 | 74 | 1019.5 |
| 20260901133702 | 19 | 39 | 1.6 | 3.2 | 0.00 | 0.00 | 0.00 | 74 | 1019.3 |
| 20260901133201 | 19 | 25 | 3.2 | 3.2 | 0.00 | 0.00 | 0.00 | 73 | 1019.4 |
| 20260901132700 | 19 | 42 | 1.6 | 1.6 | 0.00 | 0.00 | 0.00 | 73 | 1019.6 |
| 20260901132155 | 19 | 32 | 3.2 | 3.2 | 0.00 | 0.00 | 0.00 | 73 | 1019.4 |
| 20260901131655 | 19 | 32 | 0.0 | 0.0 | 0.00 | 0.00 | 0.00 | 77 | 1019.4 |
| 20260901131155 | 19 | 37 | 0.0 | 0.0 | 0.00 | 0.00 | 0.00 | 76 | 1019.2 |
| 20260901130650 | 18 | 41 | 0.0 | 1.6 | 0.00 | 0.00 | 0.00 | 78 | 1019.3 |
| 20260901130148 | 18 | 41 | 1.6 | 3.2 | 0.00 | 0.00 | 0.00 | 77 | 1019.4 |
| 20260901125647 | 18 | 38 | 0.0 | 1.6 | 0.00 | 0.00 | 0.00 | 78 | 1019.3 |
| 20260901125142 | 18 | 34 | 1.6 | 4.8 | 0.00 | 0.00 | 0.00 | 80 | 1019.2 |
| 20260901124637 | 17 | 28 | 0.0 | 0.0 | 0.00 | 0.00 | 0.00 | 81 | 1019.3 |
| 20260901124137 | 17 | 35 | 1.6 | 3.2 | 0.00 | 0.00 | 0.00 | 81 | 1019.2 |
| 20260901123632 | 18 | 36 | 1.6 | 1.6 | 0.00 | 0.00 | 0.00 | 79 | 1019.4 |
| 20260901123131 | 17 | 44 | 1.6 | 1.6 | 0.00 | 0.00 | 0.00 | 81 | 1019.4 |
| 20260901122630 | 17 | 39 | 0.0 | 1.6 | 0.00 | 0.00 | 0.00 | 83 | 1019.4 |
| 20260901122125 | 16 | 37 | 0.0 | 1.6 | 0.00 | 0.00 | 0.00 | 84 | 1019.2 |
| 20260901121620 | 16 | 23 | 0.0 | 1.6 | 0.00 | 0.00 | 0.00 | 87 | 1019.4 |
| 20260901121115 | 15 | 44 | 0.0 | 0.0 | 0.00 | 0.00 | 0.00 | 93 | 1019.2 |
| 20260901120615 | 15 | 32 | 0.0 | 0.0 | 0.00 | 0.00 | 0.00 | 99 | 1019.3 |
| 20260901120110 | 14 | 43 | 0.0 | 0.0 | 0.00 | 0.00 | 0.00 | 99 | 1019.2 |
| 20260901115605 | 13 | 38 | 0.0 | 0.0 | 0.00 | 0.00 | 0.00 | 99 | 1019.2 |
| 20260901115102 | 13 | 34 | 0.0 | 0.0 | 0.00 | 0.00 | 0.00 | 99 | 1019.2 |
| 20260901114558 | 12 | 29 | 0.0 | 0.0 | 0.00 | 0.00 | 0.00 | 99 | 1019.2 |
| 20260901114057 | 12 | 34 | 0.0 | 0.0 | 0.00 | 0.00 | 0.00 | 99 | 1019.1 |
| 20260901113555 | 11 | 33 | 0.0 | 0.0 | 0.00 | 0.00 | 0.00 | 99 | 1019.1 |
| 20260901113046 | 10 | 31 | 0.0 | 0.0 | 0.00 | 0.00 | 0.00 | 99 | 1019.1 |
| 20260901112545 | 10 | 29 | 0.0 | 0.0 | 0.00 | 0.00 | 0.00 | 99 | 1019.1 |
| 20260901112040 | 10 | 23 | 0.0 | 0.0 | 0.00 | 0.00 | 0.00 | 99 | 1019.0 |
| 20260901111539 | 10 | 18 | 0.0 | 0.0 | 0.00 | 0.00 | 0.00 | 99 | 1018.9 |
| 20260901111037 | 10 | 16 | 0.0 | 0.0 | 0.00 | 0.00 | 0.00 | 99 | 1018.8 |
| 20260901110533 | 9 | 10 | 0.0 | 0.0 | 0.00 | 0.00 | 0.00 | 99 | 1018.9 |
| 20260901110029 | 8 | 21 | 0.0 | 0.0 | 0.00 | 0.00 | 0.00 | 99 | 1018.9 |
| 20260901105526 | 8 | 21 | 0.0 | 0.0 | 0.00 | 0.00 | 0.00 | 99 | 1018.8 |
| 20260901105024 | 8 | 21 | 0.0 | 0.0 | 0.00 | 0.00 | 0.00 | 99 | 1018.6 |
| 20260901104521 | 8 | 21 | 0.0 | 0.0 | 0.00 | 0.00 | 0.00 | 99 | 1018.7 |
| 20260901104016 | 8 | 9 | 0.0 | 0.0 | 0.00 | 0.00 | 0.00 | 99 | 1018.7 |
| 20260901103510 | 8 | 319 | 1.6 | 1.6 | 0.00 | 0.00 | 0.00 | 99 | 1018.8 |
| 20260901103006 | 8 | 5 | 0.0 | 0.0 | 0.00 | 0.00 | 0.00 | 99 | 1018.5 |
| 20260901102506 | 7 | 22 | 0.0 | 0.0 | 0.00 | 0.00 | 0.00 | 99 | 1018.2 |
| 20260901102000 | 7 | 22 | 0.0 | 0.0 | 0.00 | 0.00 | 0.00 | 99 | 1018.4 |
| 20260901101455 | 8 | 23 | 0.0 | 0.0 | 0.00 | 0.00 | 0.00 | 99 | 1018.4 |
| 20260901100950 | 8 | 28 | 0.0 | 0.0 | 0.00 | 0.00 | 0.00 | 99 | 1018.3 |
| 20260901100444 | 8 | 6 | 0.0 | 0.0 | 0.00 | 0.00 | 0.00 | 99 | 1018.4 |